Regional Weather Roundup
Issued by NWS Upton, NY

Current Version | Previous Version | Text Only | Print | Product List | Glossary On
Versions: 1 2 3 4 5 6 7 8 9 10 11 12 13 14 15 16 17 18 19 20 21 22 23 24 25 26 27 28 29 30 31 32 33 34 35 36 37 38 39 40 41 42 43 44 45 46 47 48 49 50
000
ASUS41 KOKX 011007
RWROKX

REGIONAL WEATHER ROUNDUP
NATIONAL WEATHER SERVICE NEW YORK NY
600 AM EDT WED APR 01 2015

NOTE: "FAIR" INDICATES FEW OR NO CLOUDS BELOW 12,000 FEET WITH NO
SIGNIFICANT WEATHER AND/OR OBSTRUCTIONS TO VISIBILITY.

NYZ071-072-176-178-NJZ106-104-011100-
NEW YORK CITY METRO AREA


CITY           SKY/WX    TMP DP  RH WIND       PRES   REMARKS
CENTRAL PARK   CLEAR     32  21  64 VRB3      29.96R
LAGUARDIA APRT PTCLDY    34  23  64 NW10      29.94R WCI  26
KENNEDY INTL   PTCLDY    34  23  64 N9        29.94R WCI  27
NEWARK/LIBERTY PTCLDY    33  21  61 NW16      29.95R WCI  23
BRNX BOT. GARD   N/A    N/A N/A N/A NW7       29.95R
TETERBORO      CLEAR     32  21  64 N5        29.94R WCI  27
$$

NYZ177-179-078>081-011100-
LONG ISLAND NEW YORK

CITY           SKY/WX    TMP DP  RH WIND       PRES   REMARKS
FARMINGDALE    PTCLDY    33  23  66 N8        29.93R WCI  26
ISLIP          MOCLDY    33  24  69 NW10      29.90R WCI  25
SHIRLEY        PTCLDY    33  28  81 N7        29.92R WCI  27
WESTHAMPTON    CLEAR     31  27  85 N7        29.91R WCI  24
MONTAUK POINT    N/A     36  24  62 N10       29.88R WCI  28
$$

NYZ052-065-067-011100-
HUDSON VALLEY

CITY           SKY/WX    TMP DP  RH WIND       PRES   REMARKS
WHITE PLAINS   CLEAR     29  19  66 NW13      29.91R WCI  19
NEWBURGH       PTCLDY    25  25 100 CALM      29.94R
MONTGOMERY     FOG       22  21  96 CALM      29.94R VSB 1
POUGHKEEPSIE   LGT RAIN  27  22  81 CALM      29.95R
ALBANY         PTCLDY    26  11  52 N5        29.96R WCI  20
$$

NJZ001-105-106-008-010-013-015-019>022-104-011100-
NEW JERSEY

CITY           SKY/WX    TMP DP  RH WIND       PRES   REMARKS
NEWARK/LIBERTY PTCLDY    33  21  61 NW16      29.95R WCI  23
TETERBORO      CLEAR     32  21  64 N5        29.94R WCI  27
CALDWELL       CLEAR     31  19  61 NW7       29.96R WCI  24
MORRISTOWN     CLEAR     32  21  64 N3        29.96R
SOMERVILLE     CLEAR     32  19  58 N7        29.94R WCI  26
SUSSEX         PTCLDY    26  17  68 CALM      29.95R
ANDOVER          N/A     22  20  92 CALM      29.95R
TRENTON        CLEAR     32  19  58 N9        29.94R WCI  24
MILLVILLE      CLEAR     33  27  78 NW7       29.97R WCI  27
ATLANTIC CITY  CLEAR     31  27  85 NW8       29.95R WCI  23
WRIGHTSTOWN    CLEAR     31  24  75 N10       29.92R WCI  22
TOMS RIVER     CLEAR     30  27  86 NW9       29.93R WCI  22
BELMAR         CLEAR     32  21  64 NW10      29.93R WCI  24
$$

PAZ047>061-062-071-011100-
EASTERN PENNSYLVANIA

CITY           SKY/WX    TMP DP  RH WIND       PRES   REMARKS
PHILADELPHIA   PTCLDY    35  24  64 N8        29.98R WCI  29
ALLENTOWN      MOCLDY    31  23  72 NW6       29.97R WCI  25
SCRANTON       MOCLDY    24  21  88 CALM      29.95R
$$

CTZ002-004>006-009-010-012-RIZ004-006-007-MAZ004-011-015-011100-
SOUTHERN NEW ENGLAND
 IN CT

CITY           SKY/WX    TMP DP  RH WIND       PRES   REMARKS
BRADLEY INTL   PTCLDY    30  13  49 CALM      29.91R
HARTFORD       CLEAR     28  16  60 VRB6      29.93R WCI  22
DANBURY        CLEAR     29  11  47 N6        29.93R WCI  23
WTRBRY/OXFORD  PTCLDY    27  12  54 N7        29.90R WCI  19
BRIDGEPORT     PTCLDY    34  20  56 N14G23    29.91R WCI  25
MERIDEN        PTCLDY    32  22  66 NW5       29.92R WCI  27
NEW HAVEN      PTCLDY    34  25  69 NW7       29.91R WCI  28
CHESTER        FAIR      32  21  64 N9        29.89R WCI  24
GROTON         CLEAR     31  24  75 N6        29.88R WCI  25
WILLIMANTIC    CLEAR     26  22  84 CALM      29.90R

 IN RI

CITY           SKY/WX    TMP DP  RH WIND       PRES   REMARKS
PROVIDENCE     MOCLDY    32   6  33 N13       29.89R WCI  22
BLOCK ISLAND   FAIR      34  16  47 N12G21    29.85R WCI  25
WESTERLY       CLEAR     32  16  51 N7        29.88R WCI  26

 IN MA

CITY           SKY/WX    TMP DP  RH WIND       PRES   REMARKS
BOSTON         CLEAR     30   9  41 N8        29.90R WCI  22
WORCESTER      CLEAR     28   2  32 N13       29.85R WCI  17
WESTFIELD      CLEAR     28  13  53 NE3       29.92R
PROVINCETOWN   PTCLDY    34  19  55 N17G24    29.86R WCI  23
NANTUCKET      CLOUDY    37  26  64 N23G30    29.80R WCI  26
$$

ANZ330-335-338-340-345-350-353-355-011100-
COASTAL MARINE OBSERVATIONS


STATION/POSITION TIME  SKY/WX   TEMP    WIND        PRES    VSBY  WAVE
                                AIR SEA DIR/SP/G                  HT/PER
                 (UTC)          (F)     (DEG/KT/KT) (MB)    (MI)  (FT/S)
NY HARB ENTRANCE 0950            37 39  350/ 17/ 21 1012.7          3/ 8
4S FIRE IS       0903               37                N/A           3/ 8
20S FIRE ISLAND  NOT AVBL
23SW MTP         0950                                 N/A           4/ 4
HUDSON CANYON    NOT AVBL
EXECUTION ROCKS  NOT AVBL
WESTERN LI SOUND NOT AVBL
CENTRAL LI SOUND NOT AVBL
EASTERN LI SOUND NOT AVBL
ROBBINS REEF     0900            34     330/ 12/ 17 1011.7
$$


>>>>>>>>>>>>>>>>>>>>>>>>>>>> KEY <<<<<<<<<<<<<<<<<<<<<<<<<<<
>                                                          <
>     SKY/WX - SKY CONDITION/PRESENT WEATHER               <
>     TMP    - TEMPERATURE IN FAHRENHEIT                   <
>     DP     - DEWPOINT IN FAHRENHEIT                      <
>     RH     - RELATIVE HUMIDITY IN PERCENT                <
>     WIND   - DIRECTION AND SPEED IN MPH                  <
>     PRES   - MEAN SEA LEVEL PRESSURE IN INCHES OF HG     <
>     WCI    - WIND CHILL INDEX                            <
>     VSB    - VISIBILITY IN MILES                         <
>     HX     - HEAT INDEX                                  <
>     TC     - TEMPERATURE IN CELSIUS                      <
>     VRB    - VARIABLE WIND DIRECTION                     <
>                                                          <
>>>>>>>>>>>>>>>>>>>>>>>>>>>> KEY <<<<<<<<<<<<<<<<<<<<<<<<<<<





USA.gov is the U.S. government's official web portal to all federal, state and local government web resources and services.